Flag for Germany Weather past 2 weeks in Brühl (Rhineland), North Rhine-Westphalia, Germany

Now
54 °F

Passing clouds.


Feels Like: 54 °F
Forecast: 51 / 62 °F
Wind: 3 mph from South

Location: Noervenich

Current Time: Aug 22, 2014 at 7:06:59 AM

Latest Report: Aug 22, 2014 at 6:00 AM


Visibility: 22 mi

Pressure: 29.94 "Hg

Humidity: 77%

Dew point: 47 °F

Location of Brühl (Rhineland)Location

Historic Weather in Brühl (Rhineland) — Graph

°F

Brühl (Rhineland) temperature yesterday

Maximum temperature yesterday: 65 °F (at 3:00 PM)
Minimum temperature yesterday: 47 °F (at 6:00 AM)
Average temperature yesterday: 56 °F

Past Weeks' High & Low Weather Summary

 TemperatureHumidityPressure
High80 °F (Aug 8, 3:00 PM)96% (Aug 7, 6:00 AM)30.13 "Hg (Aug 7, 6:00 AM)
Low43 °F (Aug 20, 7:00 AM)44% (Aug 12, 2:00 PM)29.60 "Hg (Aug 10, 7:00 PM)
Average61 °F76%29.89 "Hg
* Reported Aug 7 4:00 AM — Aug 22 4:00 AM, Brühl (Rhineland), Weather by CustomWeather, © 2014

Note: Actual official high and low records may vary slightly from our data, if they occured in-between our weather recording intervals... More about our weather records

Advertising

Brühl (Rhineland) weather history for previous 24 hours

 ConditionsComfort  
Time TempWeatherWind HumidityBarometerVisibility
4:00 AM
Aug 22
54 °FOvercast.1 mph77%29.96 "Hg19 mi
3:00 AM55 °FOvercast.1 mph74%29.97 "Hg19 mi
2:00 AM54 °FOvercast.2 mph79%29.98 "Hg19 mi
1:00 AM56 °FOvercast.2 mph78%29.99 "Hg19 mi
12:00 AM57 °FLight rain. Overcast.2 mph73%29.99 "Hg19 mi
10:00 PM
Aug 21
56 °FOvercast.1 mph76%30.00 "Hg19 mi
9:00 PM59 °FOvercast.1 mph68%29.98 "Hg19 mi
7:00 PM63 °FScattered clouds.2 mph53%29.99 "Hg25 mi
6:00 PM63 °FOvercast.2 mph50%30.00 "Hg25 mi
4:00 PM63 °FPartly sunny.7 mph48%30.01 "Hg25 mi
3:00 PM65 °FPartly sunny.3 mph44%30.02 "Hg25 mi
2:00 PM64 °FScattered clouds.5 mph46%30.03 "Hg25 mi
1:00 PM64 °FScattered clouds.3 mph49%30.04 "Hg19 mi
12:00 PM61 °FPartly sunny.2 mph52%30.04 "Hg19 mi
10:00 AM56 °FScattered clouds.1 mph75%30.05 "Hg16 mi
9:00 AM53 °FScattered clouds.1 mph82%30.05 "Hg12 mi
8:00 AM49 °FScattered clouds.1 mph88%30.06 "Hg11 mi
7:00 AM47 °FScattered clouds.1 mph92%30.05 "Hg11 mi
Weather by CustomWeather, © 2014

See weather overviewHow to use our weather pages